Regional Weather Roundup
Issued by NWS

Home | Current Version | Previous Version | Graphics & Text | Print | Product List | Glossary On
Versions: 1 2 3 4 5 6 7 8 9 10 11 12 13 14 15 16 17 18 19 20 21 22 23 24 25 26 27 28 29 30 31 32 33 34 35 36 37 38 39 40 41 42 43 44 45 46 47 48 49 50
819
ASUS43 KOAX 090702
RWRNE

WEATHER ROUNDUP FOR NEBRASKA
NATIONAL WEATHER SERVICE OMAHA NE
100 AM CST FRI DEC 09 2016

NOTES: SATELLITE DATA IS BEING USED TO AUGMENT CLOUD COVER ABOVE
       12000 FEET.
       "FAIR" INDICATES FEW OR NO CLOUDS BELOW 12,000 FEET WITH NO
       SIGNIFICANT WEATHER AND/OR OBSTRUCTIONS TO VISIBILITY.

  * THESE STATIONS DO NOT REPORT WEATHER SUCH AS RAIN...SNOW OR FOG.

NEZ001>004-019>022-054>056-090800-
NEBRASKA PANHANDLE

CITY           SKY/WX    TMP DP  RH WIND       PRES   REMARKS
SCOTTSBLUFF    CLOUDY     8   1  73 SE13      30.24F WCI  -8
ALLIANCE       CLOUDY     5   0  79 S14       30.26F WCI -12
CHADRON        CLOUDY     1  -5  75 N3        30.30F
KIMBALL        CLOUDY     9   6  88 S9        30.19F WCI  -4
SIDNEY         CLOUDY     9   2  73 S14       30.25F WCI  -7
$$

NEZ057>060-069>072-079>082-090800-
SOUTHWEST NEBRASKA

CITY           SKY/WX    TMP DP  RH WIND       PRES   REMARKS
NORTH PLATTE   CLOUDY     2  -3  80 E6        30.47F WCI  -9
IMPERIAL       CLOUDY    10   2  69 SE8       30.40F WCI  -2
LEXINGTON      CLOUDY     4  -1  79 E3        30.52F
MCCOOK         CLOUDY     0  -5  79 CALM      30.50F
OGALLALA       CLEAR      8   1  75 S5        30.39F WCI  -1
$$

NEZ005>010-023>029-035>040-094-090800-
NORTH CENTRAL NEBRASKA

CITY           SKY/WX    TMP DP  RH WIND       PRES   REMARKS
VALENTINE      CLOUDY    -5 -10  79 NE5       30.48F WCI -16
AINSWORTH      CLOUDY    -3  -7  84 CALM      30.49F
BROKEN BOW     CLOUDY    -3  -8  79 CALM      30.50F
O`NEILL        CLOUDY     0  -3  84 CALM      30.57S
ORD            CLOUDY    -1  -8  72 CALM      30.55F
THEDFORD       PTCLDY     0  -6  77 CALM      30.46F
$$

NEZ041-046>049-061>064-073>077-083>087-090800-
SOUTH CENTRAL NEBRASKA

CITY           SKY/WX    TMP DP  RH WIND       PRES   REMARKS
GRAND ISLAND   CLOUDY     5   0  79 CALM      30.59F
AURORA         CLOUDY     3  -3  77 N3        30.59F
HASTINGS       CLOUDY     6  -1  73 CALM      30.59F
HEBRON         CLEAR      7   3  85 CALM      30.63S
HOLDREGE       CLOUDY     6   1  77 CALM      30.54F
KEARNEY *      CLOUDY     7  -2  66 CALM      30.56F
YORK           CLEAR      5   0  78 NW3       30.61F
$$

NEZ011>018-030>034-042>045-090800-
NORTHEAST NEBRASKA

CITY           SKY/WX    TMP DP  RH WIND       PRES   REMARKS
NORFOLK        CLEAR      4   0  83 NW5       30.60F WCI  -5
ALBION         CLOUDY     2  -3  80 CALM      30.59F
BLAIR          CLEAR     11   6  80 NW6       30.62S WCI   1
FREMONT        CLEAR      6   2  82 W5        30.65S WCI  -3
TEKAMAH        CLEAR      9   3  77 NW5       30.65S WCI   1
WAYNE          PTCLDY     5   1  84 CALM      30.61F
$$

NEZ050>053-065>068-078-088>093-090800-
SOUTHEAST NEBRASKA

CITY           SKY/WX    TMP DP  RH WIND       PRES   REMARKS
LINCOLN        CLEAR      8   3  80 CALM      30.66F
OMAHA EPPLEY   CLEAR     10   3  73 N6        30.65S WCI   0
BEATRICE       CLEAR      8   4  82 CALM      30.64S
FALLS CITY     CLEAR     11   6  81 NW5       30.65S WCI   3
NEBRASKA CITY  PTCLDY    13   4  67 NW8       30.63F WCI   2
PLATTSMOUTH    PTCLDY    11   3  68 NW6       30.63F WCI   2
$$

NEZ044-045-051>053-067-090800-
OMAHA AREA

CITY           SKY/WX    TMP DP  RH WIND       PRES   REMARKS
OMAHA EPPLEY   CLEAR     10   3  73 N6        30.65S WCI   0
BLAIR          CLEAR     11   6  80 NW6       30.62S WCI   1
FREMONT        CLEAR      6   2  82 W5        30.65S WCI  -3
MILLARD        CLEAR     14   7  72 NW6       30.65F WCI   5
OFFUTT AFB     CLEAR     11   6  79 NW5       30.64S WCI   3
PLATTSMOUTH    PTCLDY    11   3  68 NW6       30.63F WCI   2
WAHOO          FAIR       9   3  78 NW3       30.65R
$$




USA.gov is the U.S. government's official web portal to all federal, state and local government web resources and services.